Flag for U.S.A. Weather past 2 weeks in Houston, Texas, U.S.A.

Now
86 °F

Scattered clouds.


Feels Like: 91 °F
Forecast: 76 / 87 °F
Wind: 13 mph from South

Location: Houston Hobby Airport

Current Time: May 27, 2015 at 5:38:46 PM

Latest Report: May 27, 2015 at 4:53 PM


Visibility: 10 mi

Pressure: 30.05 "Hg

Humidity: 59%

Dew point: 70 °F

Location of HoustonLocation

Historic Weather in Houston — Graph

°F

Houston temperature yesterday

Maximum temperature yesterday: 83 °F (at 1:53 PM)
Minimum temperature yesterday: 66 °F (at 12:53 AM)
Average temperature yesterday: 76 °F

Past Weeks' High & Low Weather Summary

 TemperatureHumidityPressure
High88 °F (May 18, 3:53 PM)100% (May 13, 12:04 AM)30.16 "Hg (May 13, 12:04 AM)
Low66 °F (May 25, 11:53 PM)61% (May 18, 3:53 PM)29.84 "Hg (May 25, 5:53 PM)
Average78 °F84%30.02 "Hg
* Reported May 12 3:53 PM — May 27 3:53 PM, Houston, Weather by CustomWeather, © 2015

Note: Actual official high and low records may vary slightly from our data, if they occured in-between our weather recording intervals... More about our weather records

Advertising

Houston weather history for previous 24 hours

 ConditionsComfort  
Time TempWeatherWind HumidityBarometerVisibility
3:53 PM
Wed, May 27
85 °FPartly sunny.9 mph61%30.06 "Hg10 mi
2:53 PM85 °FScattered clouds.9 mph65%30.06 "Hg10 mi
1:53 PM82 °FScattered clouds.6 mph72%30.09 "Hg10 mi
12:53 PM78 °FScattered clouds.No wind76%30.10 "Hg10 mi
11:53 AM74 °FBroken clouds.6 mph85%30.11 "Hg10 mi
10:53 AM70 °FLight rain. Broken clouds.10 mph93%30.07 "Hg10 mi
8:53 AM68 °FLight rain. More clouds than sun.10 mph93%30.14 "Hg10 mi
7:53 AM67 °FMostly cloudy.16 mph93%30.11 "Hg10 mi
7:04 AM66 °FStrong thunderstorms. Fog.17 mph94%30.10 "Hg4 mi
6:53 AM68 °FStrong thunderstorms. Fog.21 mph90%30.12 "Hg2 mi
6:00 AM79 °FMostly cloudy.13 mph89%30.07 "Hg9 mi
5:04 AM79 °FMostly cloudy.No wind89%30.03 "Hg8 mi
4:53 AM78 °FOvercast.No wind93%30.02 "Hg8 mi
3:53 AM78 °FPassing clouds.5 mph93%30.01 "Hg9 mi
2:53 AM79 °FPassing clouds.7 mph90%30.03 "Hg10 mi
1:53 AM79 °FMostly cloudy.7 mph90%30.03 "Hg8 mi
12:53 AM79 °FMostly cloudy.7 mph88%30.03 "Hg8 mi
11:53 PM
Tue, May 26
79 °FMostly cloudy.7 mph84%30.02 "Hg10 mi
10:53 PM78 °FOvercast.7 mph87%30.03 "Hg10 mi
9:53 PM80 °FMostly cloudy.5 mph79%30.04 "Hg10 mi
8:53 PM78 °FOvercast.6 mph84%30.01 "Hg10 mi
7:53 PM79 °FMore clouds than sun.7 mph82%30.00 "Hg10 mi
6:53 PM79 °FMostly cloudy.6 mph84%30.00 "Hg10 mi
5:53 PM79 °FPartly sunny.8 mph88%30.01 "Hg10 mi
Weather by CustomWeather, © 2015

See weather overviewHow to use our weather pages